Home > Weather > Oulu > Past weeks

Flag for Finland Past Weather in Oulu, Finland — Yesterday and Last 2 Weeks

Now
59 °F

Partly sunny.


Feels Like: 57 °F
Forecast: 58 / 64 °F
Wind: 9 mph from Southeast

Location: Oulu Airport

Current Time: Jun 27, 2016 at 5:21:14 AM

Latest Report: Jun 27, 2016 at 4:50 AM


Visibility: N/A

Pressure: 29.98 "Hg

Humidity: 68%

Dew Point: 48 °F

Location of OuluLocation

Past Weather in Oulu — Graph

°F

Oulu Temperature Yesterday

Maximum temperature yesterday: 73 °F (at 5:20 PM)
Minimum temperature yesterday: 54 °F (at 4:50 AM)
Average temperature yesterday: 63 °F

High & Low Weather Summary for the Past Weeks

 TemperatureHumidityPressure
High73 °F (Jun 26, 5:20 PM)100% (Jun 17, 1:20 PM)30.15 "Hg (Jun 17, 1:20 PM)
Low41 °F (Jun 14, 4:20 AM)32% (Jun 13, 1:20 PM)29.33 "Hg (Jun 18, 4:50 PM)
Average59 °F72%29.83 "Hg
* Reported Jun 12 4:20 AM — Jun 27 4:20 AM, Oulu, Weather by CustomWeather, © 2016

Note: Actual official high and low records may vary slightly from our data, if they occured in-between our weather recording intervals... More about our weather records

Advertising

Oulu Weather History for the Previous 24 Hours

Scroll right to see more
 ConditionsComfort  
Time TempWeatherWind HumidityBarometerVisibility
4:20 AM
Mon, Jun 27
59 °FPartly sunny.8 mph68%29.98 "HgN/A
3:50 AM61 °FPartly sunny.10 mph63%29.98 "HgN/A
3:20 AM59 °FPassing clouds.9 mph68%29.98 "HgN/A
2:50 AM59 °FPassing clouds.12 mph63%29.98 "HgN/A
2:20 AM61 °FPassing clouds.13 mph63%29.98 "HgN/A
1:50 AM63 °FPartly sunny.12 mph59%29.98 "HgN/A
1:20 AM63 °FPartly sunny.10 mph59%29.98 "HgN/A
12:50 AM63 °FScattered clouds.10 mph59%29.98 "HgN/A
12:20 AM63 °FBroken clouds.6 mph64%29.98 "HgN/A
11:50 PM
Sun, Jun 26
64 °FPassing clouds.7 mph60%29.98 "HgN/A
11:20 PM66 °FScattered clouds.6 mph56%29.98 "HgN/A
10:50 PM68 °FPartly sunny.5 mph53%29.98 "HgN/A
10:20 PM68 °FPartly sunny.6 mph53%29.98 "HgN/A
9:50 PM70 °FPassing clouds.6 mph50%29.98 "HgN/A
9:20 PM70 °FPartly sunny.3 mph53%29.98 "HgN/A
8:50 PM70 °FPassing clouds.3 mph53%29.98 "HgN/A
8:20 PM70 °FPartly sunny.5 mph50%29.98 "HgN/A
7:50 PM72 °FPartly sunny.8 mph47%29.98 "HgN/A
7:20 PM73 °FBroken clouds.6 mph47%29.98 "HgN/A
6:50 PM72 °FPartly sunny.7 mph47%29.98 "HgN/A
6:20 PM72 °FMostly cloudy.7 mph50%29.98 "HgN/A
5:50 PM73 °FOvercast.3 mph47%29.98 "HgN/A
5:20 PM73 °FPartly sunny.6 mph44%29.98 "HgN/A
4:50 PM72 °FBroken clouds.6 mph47%29.98 "HgN/A
4:20 PM72 °FPartly sunny.3 mph47%30.01 "HgN/A
3:50 PM72 °FScattered clouds.5 mph47%30.01 "HgN/A
3:20 PM72 °FPartly sunny.5 mph44%30.01 "HgN/A
2:50 PM72 °FPartly sunny.6 mph44%30.01 "HgN/A
2:20 PM70 °FScattered clouds.6 mph50%30.01 "HgN/A
1:50 PM68 °FPartly sunny.6 mph60%30.04 "HgN/A
1:20 PM68 °FScattered clouds.5 mph64%30.04 "HgN/A
12:50 PM66 °FPassing clouds.6 mph68%30.04 "HgN/A
12:20 PM64 °FPartly sunny.3 mph78%30.04 "HgN/A
11:50 AM61 °FLight rain. Broken clouds.5 mph88%30.04 "HgN/A
11:20 AM61 °FPartly sunny.5 mph83%30.04 "HgN/A
10:50 AM59 °FLight rain. Mostly cloudy.3 mph88%30.04 "HgN/A
10:20 AM59 °FMostly cloudy.3 mph88%30.04 "HgN/A
9:50 AM61 °FPartly sunny.6 mph83%30.04 "HgN/A
9:20 AM57 °FLight rain. Partly sunny.6 mph94%30.04 "HgN/A
8:50 AM57 °FOvercast.3 mph88%30.04 "HgN/A
8:20 AM59 °FBroken clouds.5 mph82%30.04 "HgN/A
7:50 AM57 °FBroken clouds.3 mph94%30.04 "HgN/A
7:20 AM57 °FBroken clouds.2 mph94%30.04 "HgN/A
6:50 AM55 °FPartly sunny.5 mph100%30.04 "HgN/A
6:20 AM55 °FLow clouds.3 mph100%30.04 "HgN/A
5:50 AM55 °FLow clouds.2 mph100%30.04 "HgN/A
5:20 AM54 °FMostly cloudy.1 mph100%30.01 "HgN/A
Weather by CustomWeather, © 2016

See weather overviewHow to use our weather pages